Sioux City, IA

6:04 AM CDT on March 30, 2017 (GMT -0500)
Sioux Gateway

Weather History for KSUX - June, 2014

Change the Weather History Date:

Friday, June 20, 2014

  Actual Average Record
Temperature  
Mean Temperature 73 °F 72 °F  
Max Temperature 89 °F 84 °F 102 °F (1988)
Min Temperature 57 °F 60 °F 46 °F (1946)
Degree Days  
Heating Degree Days 0 0  
Month to date heating degree days 20 24  
Since 1 June heating degree days 20 24  
Since 1 July heating degree days 7246 6858  
Cooling Degree Days 8 7  
Month to date cooling degree days 111 105  
Year to date cooling degree days 232 169  
Since 1 June cooling degree days 111 105  
Growing Degree Days 23 (Base 50)    
Moisture  
Dew Point 64 °F    
Average Humidity 66    
Maximum Humidity 93    
Minimum Humidity 38    
Precipitation  
Precipitation 0.91 in 0.13 in 3.57 in (1954)
Month to date precipitation 12.10 2.63  
Year to date precipitation 17.35 12.61  
Snow  
Snow 0.00 in 0.00 in 0.00 in ()
Month to date snowfall 0.0 0.0  
Since 1 June snowfall 0.0 0.0  
Since 1 July snowfall 23.8 34.8  
Snow Depth 0.00 in    
Sea Level Pressure  
Sea Level Pressure 29.92 in    
Wind  
Wind Speed 7 mph (SE)    
Max Wind Speed 35 mph    
Max Gust Speed 52 mph    
Visibility 9 miles    
Events Fog , Rain , Thunderstorm    
T = Trace of Precipitation, MM = Missing Value Source: NWS Daily Summary

Daily Weather History Graph

Daily Weather History Graph

Search for Another Location

Airport or City:

Trip Planner

Search our weather history database for the weather conditions in past years. The results will help you decide how hot, cold, wet, or windy it might be!

Date:

Astronomy

Jun. 20, 2014 Rise Set
Actual Time 5:48 AM CDT 9:05 PM CDT
Civil Twilight 5:13 AM CDT 9:40 PM CDT
Nautical Twilight 4:28 AM CDT 10:25 PM CDT
Astronomical Twilight 3:33 AM CDT 11:20 PM CDT
Moon 1:34 AM CDT (6/20) 2:35 PM CDT (6/20)
Length of Visible Light 16h 27m
Length of Day
15h 17m
Last Quarter, 40% of the Moon is Illuminated
Jun 20
Last Quarter
Jun 27
New
Jul 5
First Quarter
Jul 12
Full
Jul 18
Last Quarter

Hourly Weather History & Observations

Time (CDT) Temp. Heat Index Dew Point Humidity Pressure Visibility Wind Dir Wind Speed Gust Speed Precip Events Conditions
12:52 AM 64.9 °F - 63.0 °F 93% 29.95 in 10.0 mi SW 5.8 mph - N/A   Clear
1:52 AM 68.0 °F - 63.0 °F 84% 29.95 in 10.0 mi NNE 4.6 mph - N/A   Clear
2:52 AM 62.1 °F - 60.1 °F 93% 29.95 in 10.0 mi SSW 3.5 mph - N/A   Clear
3:52 AM 62.1 °F - 59.0 °F 90% 29.95 in 10.0 mi Calm Calm - N/A   Clear
4:52 AM 60.1 °F - 57.9 °F 93% 29.96 in 10.0 mi Calm Calm - N/A   Clear
5:52 AM 57.0 °F - 55.9 °F 96% 29.97 in 1.8 mi Calm Calm - N/A   Clear
6:01 AM 57.9 °F - 57.0 °F 97% 29.99 in 0.5 mi Calm Calm - N/A Fog Fog
6:09 AM 57.9 °F - 57.0 °F 97% 29.99 in 10.0 mi Calm Calm - N/A   Clear
6:52 AM 64.0 °F - 59.0 °F 84% 29.98 in 10.0 mi Calm Calm - N/A   Clear
7:52 AM 66.9 °F - 60.1 °F 79% 29.97 in 10.0 mi Calm Calm - N/A   Clear
8:52 AM 71.6 °F - 62.6 °F 73% 29.99 in 10.0 mi ESE 4.6 mph - N/A   Clear
9:52 AM 75.9 °F - 64.0 °F 67% 29.96 in 10.0 mi SE 5.8 mph - N/A   Clear
10:52 AM 81.0 °F 83.3 °F 66.9 °F 62% 29.95 in 10.0 mi South 4.6 mph - N/A   Clear
11:52 AM 84.0 °F 85.8 °F 64.9 °F 53% 29.93 in 10.0 mi SSE 11.5 mph - N/A   Clear
12:52 PM 87.1 °F 87.0 °F 61.0 °F 41% 29.93 in 10.0 mi SSW 12.7 mph - N/A   Clear
1:52 PM 89.1 °F 89.0 °F 61.0 °F 39% 29.90 in 10.0 mi South 15.0 mph - N/A   Clear
2:21 PM 88.0 °F 89.6 °F 64.9 °F 46% 29.90 in 10.0 mi South 13.8 mph - N/A Thunderstorm Scattered Clouds
2:31 PM 84.0 °F 85.8 °F 64.9 °F 53% 29.94 in 5.0 mi SW 26.5 mph 35.7 mph 0.00 in Rain , Thunderstorm Light Thunderstorms and Rain
2:39 PM 72.0 °F - 64.0 °F 76% 29.94 in 0.5 mi SW 11.5 mph 51.8 mph 0.05 in Rain , Thunderstorm Heavy Thunderstorms and Rain
2:52 PM 75.0 °F - 63.0 °F 66% 29.88 in 5.0 mi East 12.7 mph 20.7 mph 0.57 in Rain , Thunderstorm Light Thunderstorms and Rain
3:52 PM 75.9 °F - 64.9 °F 69% 29.85 in 10.0 mi East 17.3 mph - 0.02 in Thunderstorm Thunderstorm
4:04 PM 75.0 °F - 66.0 °F 73% 29.87 in 10.0 mi SE 5.8 mph - N/A Thunderstorm Scattered Clouds
4:19 PM 75.0 °F - 66.0 °F 73% 29.90 in 10.0 mi NE 19.6 mph 28.8 mph N/A   Mostly Cloudy
4:30 PM 75.9 °F - 64.9 °F 69% 29.88 in 10.0 mi ENE 11.5 mph - N/A   Mostly Cloudy
4:52 PM 75.0 °F - 64.9 °F 71% 29.86 in 10.0 mi ENE 18.4 mph 24.2 mph N/A Thunderstorm Thunderstorm
5:27 PM 73.9 °F - 64.0 °F 71% 29.88 in 10.0 mi East 18.4 mph 26.5 mph N/A Thunderstorm Mostly Cloudy
5:52 PM 75.0 °F - 66.0 °F 73% 29.87 in 10.0 mi East 18.4 mph 24.2 mph N/A Thunderstorm Overcast
6:06 PM 73.9 °F - 66.0 °F 76% 29.90 in 8.0 mi ESE 16.1 mph 24.2 mph N/A Thunderstorm Thunderstorm
6:21 PM 72.0 °F - 68.0 °F 87% 29.90 in 2.0 mi East 15.0 mph - 0.21 in Rain , Thunderstorm Heavy Thunderstorms and Rain
6:29 PM 73.0 °F - 69.1 °F 87% 29.89 in 9.0 mi East 15.0 mph - 0.22 in Rain , Thunderstorm Light Thunderstorms and Rain
6:38 PM 72.0 °F - 68.0 °F 87% 29.90 in 10.0 mi SE 17.3 mph - 0.22 in Thunderstorm Overcast
6:42 PM 73.0 °F - 68.0 °F 84% 29.89 in 10.0 mi SE 15.0 mph - 0.22 in Thunderstorm Thunderstorm
6:52 PM 73.0 °F - 68.0 °F 84% 29.89 in 10.0 mi ESE 8.1 mph 27.6 mph 0.22 in Thunderstorm Thunderstorm
7:04 PM 72.0 °F - 66.9 °F 84% 29.89 in 10.0 mi ESE 9.2 mph - N/A Thunderstorm Scattered Clouds
7:32 PM 75.0 °F - 66.0 °F 73% 29.91 in 4.0 mi East 10.4 mph - 0.02 in Rain , Thunderstorm Heavy Thunderstorms and Rain
7:52 PM 73.0 °F - 68.0 °F 84% 29.88 in 10.0 mi WNW 4.6 mph - 0.09 in Rain , Thunderstorm Light Thunderstorms and Rain
8:03 PM 73.0 °F - 66.9 °F 81% 29.87 in 10.0 mi SSE 8.1 mph - 0.00 in   Scattered Clouds
8:52 PM 72.0 °F - 68.0 °F 87% 29.86 in 10.0 mi South 8.1 mph - 0.00 in   Clear
9:52 PM 70.0 °F - 64.0 °F 81% 29.83 in 10.0 mi SSE 9.2 mph - N/A   Clear
10:52 PM 71.1 °F - 64.0 °F 78% 29.87 in 10.0 mi Calm Calm - N/A   Clear
11:52 PM 71.1 °F - 64.0 °F 78% 29.90 in 10.0 mi WSW 6.9 mph - 0.00 in Rain Light Rain